Regional Weather Roundup
Issued by NWS

Home | Current Version | Previous Version | Text Only | Print | Product List | Glossary Off
Versions: 1 2 3 4 5 6 7 8 9 10 11 12 13 14 15 16 17 18 19 20 21 22 23 24 25 26 27 28 29 30 31 32 33 34 35 36 37 38 39 40 41 42 43 44 45 46 47 48 49 50

816
ASUS43 KTOP 202208
RWRKS

WEATHER ROUNDUP FOR KANSAS
NATIONAL WEATHER SERVICE GOODLAND KS
400 PM CST MON FEB 20 2017

NOTE:  "FAIR" INDICATES FEW OR NO CLOUDS BELOW 12,000 FEET WITH NO
SIGNIFICANT WEATHER AND/OR OBSTRUCTIONS TO VISIBILITY.

KSZ001>006-013>018-027>032-041>047-202300-
NORTHWEST KANSAS

CITY           SKY/WX    TMP DP  RH WIND       PRES   REMARKS
GOODLAND       SUNNY     63  16  16 NW24G31   29.96R
HAYS           SUNNY     66  38  35 N23G30    29.86R
HILL CITY      MOSUNNY   67  35  30 N17G29    29.89R
RUSSELL        MOSUNNY   68  39  34 NW18      29.83R
$$

KSZ061>065-074>080-084>089-202300-
SOUTHWEST KANSAS

CITY           SKY/WX    TMP DP  RH WIND       PRES   REMARKS
DODGE CITY     SUNNY     66  27  23 N22G31    29.89R
ELKHART          N/A     65  15  14 NW20        N/A
GARDEN CITY    SUNNY     65  20  17 NW21G30   29.93R
GREAT BEND     MOSUNNY   66  37  34 NW16      29.85R
LIBERAL        SUNNY     68  16  13 N23G31    29.95R
PRATT          SUNNY     66  28  23 NW16G24   29.86R
$$

KSZ066>073-081>083-090>101-202300-
SOUTHEAST KANSAS

CITY           SKY/WX    TMP DP  RH WIND       PRES   REMARKS
CHANUTE        CLOUDY    64  52  64 SW20G25   29.88R
COFFEYVILLE    CLOUDY    64  54  69 S12       29.89S
HUTCHINSON     MOSUNNY   70  34  26 NW7       29.82R
MEDICINE LODGE   N/A     72  25  17 VRB7      29.83S
NEWTON         MOSUNNY   60  53  77 S16       29.85R
PARSONS        CLOUDY    65  54  67 S12       29.89S
WICHITA INTL   CLOUDY    62  53  72 SW13      29.85R
WICHITA JABRA  CLOUDY    60  52  74 SW14      29.85R
WICHITA MCCONL PTSUNNY   61  51  71 SW13      29.84R
WINFIELD       CLOUDY    61  54  77 S10       29.87S
$$

KSZ007>012-019>026-033>040-048>060-102>105-202300-
NORTHEAST KANSAS

CITY           SKY/WX    TMP DP  RH WIND       PRES   REMARKS
CONCORDIA      SUNNY     68  43  40 NW10      29.79R
EMPORIA        PTSUNNY   60  52  74 S13       29.85R
LAWRENCE       CLOUDY    65  53  65 S13       29.83R
MANHATTAN      CLOUDY    64  53  67 S13       29.81R
MARYSVILLE     PTSUNNY   61  54  77 SW8       29.80S
OLATHE IND     CLOUDY    66  51  58 S12       29.84S
OLATHE EXE     PTSUNNY   65  51  60 SW13G18   29.84S
SALINA         MOSUNNY   72  36  26 NW13      29.81R
TOPEKA BILLARD CLOUDY    63  53  70 SW8       29.82R
TOPEKA FORBES  CLOUDY    64  53  67 S15       29.83R
$$




USA.gov is the U.S. government's official web portal to all federal, state and local government web resources and services.